Year,Month,Day,Hour,Minute,Value (Times are PST for temperature in C)
2006,08,20,00,00,15.00
2006,08,20,00,01,15.00
2006,08,20,00,02,15.00
2006,08,20,00,03,15.00
2006,08,20,00,04,15.00
2006,08,20,00,05,15.00
2006,08,20,00,06,15.00
2006,08,20,00,07,15.00
2006,08,20,00,08,15.00
2006,08,20,00,09,15.00
2006,08,20,00,10,15.00
2006,08,20,00,11,15.00
2006,08,20,00,12,15.00
2006,08,20,00,13,15.00
2006,08,20,00,14,15.00
2006,08,20,00,15,15.00
2006,08,20,00,16,15.00
2006,08,20,00,17,15.00
2006,08,20,00,18,15.00
2006,08,20,00,19,15.00
2006,08,20,00,20,15.00
2006,08,20,00,21,15.00
2006,08,20,00,22,15.00
2006,08,20,00,23,15.00
2006,08,20,00,24,15.00
2006,08,20,00,25,15.00
2006,08,20,00,26,15.00
2006,08,20,00,27,15.00
2006,08,20,00,28,15.00
2006,08,20,00,29,15.00
2006,08,20,00,30,15.00
2006,08,20,00,31,15.00
2006,08,20,00,32,15.00
2006,08,20,00,33,15.00
2006,08,20,00,34,15.00
2006,08,20,00,35,15.00
2006,08,20,00,36,14.90
2006,08,20,00,37,14.90
2006,08,20,00,38,14.90
2006,08,20,00,39,14.90
2006,08,20,00,40,14.90
2006,08,20,00,41,14.90
2006,08,20,00,42,14.90
2006,08,20,00,43,14.80
2006,08,20,00,44,14.80
2006,08,20,00,45,14.80
2006,08,20,00,46,14.80
2006,08,20,00,47,14.80
2006,08,20,00,48,14.80
2006,08,20,00,49,14.70
2006,08,20,00,50,14.70
2006,08,20,00,51,14.70
2006,08,20,00,52,14.70
2006,08,20,00,53,14.70
2006,08,20,00,54,14.60
2006,08,20,00,55,14.60
2006,08,20,00,56,14.60
2006,08,20,00,57,14.60
2006,08,20,00,58,14.50
2006,08,20,00,59,14.50
2006,08,20,01,00,14.50
2006,08,20,01,01,14.40
2006,08,20,01,02,14.40
2006,08,20,01,03,14.40
2006,08,20,01,04,14.40
2006,08,20,01,05,14.40
2006,08,20,01,06,14.40
2006,08,20,01,07,14.40
2006,08,20,01,08,14.30
2006,08,20,01,09,14.30
2006,08,20,01,10,14.30
2006,08,20,01,11,14.30
2006,08,20,01,12,14.30
2006,08,20,01,13,14.30
2006,08,20,01,14,14.30
2006,08,20,01,15,14.30
2006,08,20,01,16,14.30
2006,08,20,01,17,14.30
2006,08,20,01,18,14.20
2006,08,20,01,19,14.20
2006,08,20,01,20,14.20
2006,08,20,01,21,14.20
2006,08,20,01,22,14.20
2006,08,20,01,23,14.20
2006,08,20,01,24,14.20
2006,08,20,01,25,14.10
2006,08,20,01,26,14.10
2006,08,20,01,27,14.10
2006,08,20,01,28,14.10
2006,08,20,01,29,14.00
2006,08,20,01,30,14.00
2006,08,20,01,31,14.00
2006,08,20,01,32,13.90
2006,08,20,01,33,13.90
2006,08,20,01,34,13.90
2006,08,20,01,35,13.90
2006,08,20,01,36,13.90
2006,08,20,01,37,13.80
2006,08,20,01,38,13.80
2006,08,20,01,39,13.80
2006,08,20,01,40,13.80
2006,08,20,01,41,13.80
2006,08,20,01,42,13.80
2006,08,20,01,43,13.80
2006,08,20,01,44,13.80
2006,08,20,01,45,13.80
2006,08,20,01,46,13.80
2006,08,20,01,47,13.80
2006,08,20,01,48,13.80
2006,08,20,01,49,13.80
2006,08,20,01,50,13.80
2006,08,20,01,51,13.80
2006,08,20,01,52,13.80
2006,08,20,01,53,13.80
2006,08,20,01,54,13.80
2006,08,20,01,55,13.80
2006,08,20,01,56,13.70
2006,08,20,01,57,13.70
2006,08,20,01,58,13.70
2006,08,20,01,59,13.70
2006,08,20,02,00,13.80
2006,08,20,02,01,13.70
2006,08,20,02,02,13.70
2006,08,20,02,03,13.70
2006,08,20,02,04,13.70
2006,08,20,02,05,13.70
2006,08,20,02,06,13.70
2006,08,20,02,07,13.70
2006,08,20,02,08,13.70
2006,08,20,02,09,13.70
2006,08,20,02,10,13.70
2006,08,20,02,11,13.60
2006,08,20,02,12,13.60
2006,08,20,02,13,13.60
2006,08,20,02,14,13.60
2006,08,20,02,15,13.60
2006,08,20,02,16,13.60
2006,08,20,02,17,13.60
2006,08,20,02,18,13.50
2006,08,20,02,19,13.50
2006,08,20,02,20,13.50
2006,08,20,02,21,13.40
2006,08,20,02,22,13.40
2006,08,20,02,23,13.40
2006,08,20,02,24,13.40
2006,08,20,02,25,13.40
2006,08,20,02,26,13.40
2006,08,20,02,27,13.30
2006,08,20,02,28,13.30
2006,08,20,02,29,13.30
2006,08,20,02,30,13.30
2006,08,20,02,31,13.30
2006,08,20,02,32,13.30
2006,08,20,02,33,13.30
2006,08,20,02,34,13.30
2006,08,20,02,35,13.30
2006,08,20,02,36,13.30
2006,08,20,02,37,13.20
2006,08,20,02,38,13.20
2006,08,20,02,39,13.20
2006,08,20,02,40,13.20
2006,08,20,02,41,13.20
2006,08,20,02,42,13.20
2006,08,20,02,43,13.20
2006,08,20,02,44,13.20
2006,08,20,02,45,13.20
2006,08,20,02,46,13.20
2006,08,20,02,47,13.10
2006,08,20,02,48,13.10
2006,08,20,02,49,13.10
2006,08,20,02,50,13.10
2006,08,20,02,51,13.00
2006,08,20,02,52,13.00
2006,08,20,02,53,13.00
2006,08,20,02,54,13.00
2006,08,20,02,55,13.00
2006,08,20,02,56,12.90
2006,08,20,02,57,12.90
2006,08,20,02,58,12.90
2006,08,20,02,59,12.90
2006,08,20,03,00,12.90
2006,08,20,03,01,12.90
2006,08,20,03,02,12.90
2006,08,20,03,03,12.90
2006,08,20,03,04,12.80
2006,08,20,03,05,12.80
2006,08,20,03,06,12.80
2006,08,20,03,07,12.80
2006,08,20,03,08,12.80
2006,08,20,03,09,12.80
2006,08,20,03,10,12.80
2006,08,20,03,11,12.80
2006,08,20,03,12,12.70
2006,08,20,03,13,12.70
2006,08,20,03,14,12.70
2006,08,20,03,15,12.70
2006,08,20,03,16,12.70
2006,08,20,03,17,12.70
2006,08,20,03,18,12.60
2006,08,20,03,19,12.60
2006,08,20,03,20,12.60
2006,08,20,03,21,12.60
2006,08,20,03,22,12.60
2006,08,20,03,23,12.60
2006,08,20,03,24,12.60
2006,08,20,03,25,12.60
2006,08,20,03,26,12.50
2006,08,20,03,27,12.50
2006,08,20,03,28,12.50
2006,08,20,03,29,12.50
2006,08,20,03,30,12.50
2006,08,20,03,31,12.40
2006,08,20,03,32,12.40
2006,08,20,03,33,12.40
2006,08,20,03,34,12.40
2006,08,20,03,35,12.30
2006,08,20,03,36,12.30
2006,08,20,03,37,12.30
2006,08,20,03,38,12.30
2006,08,20,03,39,12.30
2006,08,20,03,40,12.30
2006,08,20,03,41,12.30
2006,08,20,03,42,12.30
2006,08,20,03,43,12.30
2006,08,20,03,44,12.30
2006,08,20,03,45,12.30
2006,08,20,03,46,12.20
2006,08,20,03,47,12.20
2006,08,20,03,48,12.20
2006,08,20,03,49,12.20
2006,08,20,03,50,12.20
2006,08,20,03,51,12.20
2006,08,20,03,52,12.20
2006,08,20,03,53,12.10
2006,08,20,03,54,12.10
2006,08,20,03,55,12.10
2006,08,20,03,56,12.10
2006,08,20,03,57,12.10
2006,08,20,03,58,12.10
2006,08,20,03,59,12.10
2006,08,20,04,00,12.10
2006,08,20,04,01,12.10
2006,08,20,04,02,12.10
2006,08,20,04,03,12.10
2006,08,20,04,04,12.10
2006,08,20,04,05,12.10
2006,08,20,04,06,12.10
2006,08,20,04,07,12.00
2006,08,20,04,08,12.00
2006,08,20,04,09,11.90
2006,08,20,04,10,11.90
2006,08,20,04,11,11.90
2006,08,20,04,12,11.90
2006,08,20,04,13,11.90
2006,08,20,04,14,11.90
2006,08,20,04,15,11.90
2006,08,20,04,16,11.90
2006,08,20,04,17,11.90
2006,08,20,04,18,11.90
2006,08,20,04,19,11.90
2006,08,20,04,20,11.80
2006,08,20,04,21,11.80
2006,08,20,04,22,11.80
2006,08,20,04,23,11.80
2006,08,20,04,24,11.80
2006,08,20,04,25,11.80
2006,08,20,04,26,11.80
2006,08,20,04,27,11.80
2006,08,20,04,28,11.80
2006,08,20,04,29,11.80
2006,08,20,04,30,11.80
2006,08,20,04,31,11.70
2006,08,20,04,32,11.70
2006,08,20,04,33,11.70
2006,08,20,04,34,11.70
2006,08,20,04,35,11.70
2006,08,20,04,36,11.70
2006,08,20,04,37,11.70
2006,08,20,04,38,11.60
2006,08,20,04,39,11.60
2006,08,20,04,40,11.60
2006,08,20,04,41,11.60
2006,08,20,04,42,11.60
2006,08,20,04,43,11.60
2006,08,20,04,44,11.60
2006,08,20,04,45,11.60
2006,08,20,04,46,11.60
2006,08,20,04,47,11.60
2006,08,20,04,48,11.60
2006,08,20,04,49,11.60
2006,08,20,04,50,11.60
2006,08,20,04,51,11.60
2006,08,20,04,52,11.60
2006,08,20,04,53,11.60
2006,08,20,04,54,11.60
2006,08,20,04,55,11.60
2006,08,20,04,56,11.60
2006,08,20,04,57,11.60
2006,08,20,04,58,11.60
2006,08,20,04,59,11.60
2006,08,20,05,00,11.60
2006,08,20,05,01,11.60
2006,08,20,05,02,11.60
2006,08,20,05,03,11.60
2006,08,20,05,04,11.60
2006,08,20,05,05,11.60
2006,08,20,05,06,11.60
2006,08,20,05,07,11.60
2006,08,20,05,08,11.60
2006,08,20,05,09,11.60
2006,08,20,05,10,11.60
2006,08,20,05,11,11.60
2006,08,20,05,12,11.60
2006,08,20,05,13,11.60
2006,08,20,05,14,11.60
2006,08,20,05,15,11.60
2006,08,20,05,16,11.60
2006,08,20,05,17,11.60
2006,08,20,05,18,11.60
2006,08,20,05,19,11.60
2006,08,20,05,20,11.50
2006,08,20,05,21,11.50
2006,08,20,05,22,11.50
2006,08,20,05,23,11.50
2006,08,20,05,24,11.40
2006,08,20,05,25,11.40
2006,08,20,05,26,11.40
2006,08,20,05,27,11.40
2006,08,20,05,28,11.40
2006,08,20,05,29,11.40
2006,08,20,05,30,11.40
2006,08,20,05,31,11.40
2006,08,20,05,32,11.40
2006,08,20,05,33,11.40
2006,08,20,05,34,11.40
2006,08,20,05,35,11.40
2006,08,20,05,36,11.40
2006,08,20,05,37,11.40
2006,08,20,05,38,11.40
2006,08,20,05,39,11.40
2006,08,20,05,40,11.30
2006,08,20,05,41,11.30
2006,08,20,05,42,11.30
2006,08,20,05,43,11.30
2006,08,20,05,44,11.30
2006,08,20,05,45,11.30
2006,08,20,05,46,11.30
2006,08,20,05,47,11.30
2006,08,20,05,48,11.30
2006,08,20,05,49,11.20
2006,08,20,05,50,11.20
2006,08,20,05,51,11.20
2006,08,20,05,52,11.20
2006,08,20,05,53,11.20
2006,08,20,05,54,11.20
2006,08,20,05,55,11.20
2006,08,20,05,56,11.10
2006,08,20,05,57,11.10
2006,08,20,05,58,11.10
2006,08,20,05,59,11.10
2006,08,20,06,00,11.10
2006,08,20,06,01,11.10
2006,08,20,06,02,11.00
2006,08,20,06,03,11.00
2006,08,20,06,04,11.00
2006,08,20,06,05,11.00
2006,08,20,06,06,11.00
2006,08,20,06,07,11.00
2006,08,20,06,08,11.00
2006,08,20,06,09,11.00
2006,08,20,06,10,11.00
2006,08,20,06,11,11.00
2006,08,20,06,12,11.00
2006,08,20,06,13,10.90
2006,08,20,06,14,10.90
2006,08,20,06,15,10.90
2006,08,20,06,16,10.90
2006,08,20,06,17,10.90
2006,08,20,06,18,10.90
2006,08,20,06,19,10.90
2006,08,20,06,20,10.90
2006,08,20,06,21,11.00
2006,08,20,06,22,11.00
2006,08,20,06,23,11.00
2006,08,20,06,24,11.00
2006,08,20,06,25,11.00
2006,08,20,06,26,11.00
2006,08,20,06,27,11.00
2006,08,20,06,28,11.00
2006,08,20,06,29,11.00
2006,08,20,06,30,11.00
2006,08,20,06,31,10.90
2006,08,20,06,32,10.90
2006,08,20,06,33,10.90
2006,08,20,06,34,10.90
2006,08,20,06,35,10.90
2006,08,20,06,36,10.90
2006,08,20,06,37,10.90
2006,08,20,06,38,10.90
2006,08,20,06,39,10.90
2006,08,20,06,40,10.90
2006,08,20,06,41,11.00
2006,08,20,06,42,11.00
2006,08,20,06,43,11.00
2006,08,20,06,44,11.00
2006,08,20,06,45,11.00
2006,08,20,06,46,11.00
2006,08,20,06,47,11.00
2006,08,20,06,48,11.00
2006,08,20,06,49,11.10
2006,08,20,06,50,11.10
2006,08,20,06,51,11.10
2006,08,20,06,52,11.10
2006,08,20,06,53,11.10
2006,08,20,06,54,11.10
2006,08,20,06,55,11.20
2006,08,20,06,56,11.20
2006,08,20,06,57,11.20
2006,08,20,06,58,11.20
2006,08,20,06,59,11.30
2006,08,20,07,00,11.30
2006,08,20,07,01,11.30
2006,08,20,07,02,11.40
2006,08,20,07,03,11.50
2006,08,20,07,04,11.60
2006,08,20,07,05,11.60
2006,08,20,07,06,11.70
2006,08,20,07,07,11.70
2006,08,20,07,08,11.70
2006,08,20,07,09,11.80
2006,08,20,07,10,11.80
2006,08,20,07,11,11.90
2006,08,20,07,12,11.90
2006,08,20,07,13,12.00
2006,08,20,07,14,12.00
2006,08,20,07,15,12.10
2006,08,20,07,16,12.10
2006,08,20,07,17,12.10
2006,08,20,07,18,12.20
2006,08,20,07,19,12.30
2006,08,20,07,20,12.40
2006,08,20,07,21,12.60
2006,08,20,07,22,12.70
2006,08,20,07,23,12.80
2006,08,20,07,24,12.90
2006,08,20,07,25,13.00
2006,08,20,07,26,13.10
2006,08,20,07,27,13.10
2006,08,20,07,28,13.10
2006,08,20,07,29,13.10
2006,08,20,07,30,13.20
2006,08,20,07,31,13.20
2006,08,20,07,32,13.30
2006,08,20,07,33,13.40
2006,08,20,07,34,13.50
2006,08,20,07,35,13.60
2006,08,20,07,36,13.70
2006,08,20,07,37,13.80
2006,08,20,07,38,13.90
2006,08,20,07,39,13.90
2006,08,20,07,40,14.00
2006,08,20,07,41,14.00
2006,08,20,07,42,14.10
2006,08,20,07,43,14.20
2006,08,20,07,44,14.20
2006,08,20,07,45,14.30
2006,08,20,07,46,14.40
2006,08,20,07,47,14.40
2006,08,20,07,48,14.50
2006,08,20,07,49,14.70
2006,08,20,07,50,14.90
2006,08,20,07,51,15.00
2006,08,20,07,52,15.00
2006,08,20,07,53,15.20
2006,08,20,07,54,15.30
2006,08,20,07,55,15.40
2006,08,20,07,56,15.50
2006,08,20,07,57,15.50
2006,08,20,07,58,15.60
2006,08,20,07,59,15.60
2006,08,20,08,00,15.70
2006,08,20,08,01,15.70
2006,08,20,08,02,15.70
2006,08,20,08,03,15.80
2006,08,20,08,04,15.80
2006,08,20,08,05,15.90
2006,08,20,08,06,15.90
2006,08,20,08,07,15.90
2006,08,20,08,08,15.90
2006,08,20,08,09,15.90
2006,08,20,08,10,15.90
2006,08,20,08,11,15.90
2006,08,20,08,12,15.90
2006,08,20,08,13,15.90
2006,08,20,08,14,15.90
2006,08,20,08,15,15.90
2006,08,20,08,16,15.90
2006,08,20,08,17,15.90
2006,08,20,08,18,15.90
2006,08,20,08,19,15.90
2006,08,20,08,20,16.00
2006,08,20,08,21,16.00
2006,08,20,08,22,16.10
2006,08,20,08,23,16.10
2006,08,20,08,24,16.20
2006,08,20,08,25,16.20
2006,08,20,08,26,16.20
2006,08,20,08,27,16.20
2006,08,20,08,28,16.20
2006,08,20,08,29,16.30
2006,08,20,08,30,16.30
2006,08,20,08,31,16.40
2006,08,20,08,32,16.40
2006,08,20,08,33,16.40
2006,08,20,08,34,16.40
2006,08,20,08,35,16.40
2006,08,20,08,36,16.40
2006,08,20,08,37,16.40
2006,08,20,08,38,16.40
2006,08,20,08,39,16.40
2006,08,20,08,40,16.40
2006,08,20,08,41,16.40
2006,08,20,08,42,16.40
2006,08,20,08,43,16.40
2006,08,20,08,44,16.50
2006,08,20,08,45,16.50
2006,08,20,08,46,16.50
2006,08,20,08,47,16.50
2006,08,20,08,48,16.60
2006,08,20,08,49,16.60
2006,08,20,08,50,16.60
2006,08,20,08,51,16.60
2006,08,20,08,52,16.70
2006,08,20,08,53,16.70
2006,08,20,08,54,16.80
2006,08,20,08,55,16.90
2006,08,20,08,56,17.00
2006,08,20,08,57,17.00
2006,08,20,08,58,17.10
2006,08,20,08,59,17.10
2006,08,20,09,00,17.10
2006,08,20,09,01,17.10
2006,08,20,09,02,17.10
2006,08,20,09,03,17.10
2006,08,20,09,04,17.10
2006,08,20,09,05,17.20
2006,08,20,09,06,17.20
2006,08,20,09,07,17.20
2006,08,20,09,08,17.20
2006,08,20,09,09,17.30
2006,08,20,09,10,17.30
2006,08,20,09,11,17.30
2006,08,20,09,12,17.30
2006,08,20,09,13,17.30
2006,08,20,09,14,17.30
2006,08,20,09,15,17.30
2006,08,20,09,16,17.30
2006,08,20,09,17,17.40
2006,08,20,09,18,17.40
2006,08,20,09,19,17.50
2006,08,20,09,20,17.60
2006,08,20,09,21,17.70
2006,08,20,09,22,17.80
2006,08,20,09,23,17.80
2006,08,20,09,24,17.80
2006,08,20,09,25,17.90
2006,08,20,09,26,18.00
2006,08,20,09,27,17.90
2006,08,20,09,28,17.90
2006,08,20,09,29,17.90
2006,08,20,09,30,17.90
2006,08,20,09,31,17.90
2006,08,20,09,32,18.00
2006,08,20,09,33,18.00
2006,08,20,09,34,18.00
2006,08,20,09,35,17.90
2006,08,20,09,36,17.90
2006,08,20,09,37,17.80
2006,08,20,09,38,17.80
2006,08,20,09,39,17.70
2006,08,20,09,40,17.70
2006,08,20,09,41,17.70
2006,08,20,09,42,17.80
2006,08,20,09,43,17.80
2006,08,20,09,44,17.80
2006,08,20,09,45,17.80
2006,08,20,09,46,17.90
2006,08,20,09,47,17.90
2006,08,20,09,48,17.90
2006,08,20,09,49,18.00
2006,08,20,09,50,18.10
2006,08,20,09,51,18.10
2006,08,20,09,52,18.10
2006,08,20,09,53,18.00
2006,08,20,09,54,18.00
2006,08,20,09,55,18.00
2006,08,20,09,56,18.00
2006,08,20,09,57,17.90
2006,08,20,09,58,17.90
2006,08,20,09,59,17.90
2006,08,20,10,00,17.90
2006,08,20,10,01,17.90
2006,08,20,10,02,17.80
2006,08,20,10,03,17.80
2006,08,20,10,04,17.80
2006,08,20,10,05,17.80
2006,08,20,10,06,17.80
2006,08,20,10,07,17.80
2006,08,20,10,08,17.80
2006,08,20,10,09,17.90
2006,08,20,10,10,18.00
2006,08,20,10,11,18.10
2006,08,20,10,12,18.10
2006,08,20,10,13,18.00
2006,08,20,10,14,18.10
2006,08,20,10,15,18.20
2006,08,20,10,16,18.20
2006,08,20,10,17,18.30
2006,08,20,10,18,18.30
2006,08,20,10,19,18.20
2006,08,20,10,20,18.20
2006,08,20,10,21,18.20
2006,08,20,10,22,18.20
2006,08,20,10,23,18.20
2006,08,20,10,24,18.20
2006,08,20,10,25,18.20
2006,08,20,10,26,18.30
2006,08,20,10,27,18.30
2006,08,20,10,28,18.40
2006,08,20,10,29,18.50
2006,08,20,10,30,18.60
2006,08,20,10,31,18.60
2006,08,20,10,32,18.50
2006,08,20,10,33,18.60
2006,08,20,10,34,18.60
2006,08,20,10,35,18.60
2006,08,20,10,36,18.60
2006,08,20,10,37,18.60
2006,08,20,10,38,18.60
2006,08,20,10,39,18.60
2006,08,20,10,40,18.60
2006,08,20,10,41,18.60
2006,08,20,10,42,18.60
2006,08,20,10,43,18.70
2006,08,20,10,44,18.70
2006,08,20,10,45,18.70
2006,08,20,10,46,18.80
2006,08,20,10,47,18.80
2006,08,20,10,48,18.80
2006,08,20,10,49,18.80
2006,08,20,10,50,18.90
2006,08,20,10,51,18.90
2006,08,20,10,52,18.90
2006,08,20,10,53,18.90
2006,08,20,10,54,18.80
2006,08,20,10,55,18.80
2006,08,20,10,56,18.90
2006,08,20,10,57,19.00
2006,08,20,10,58,19.00
2006,08,20,10,59,19.00
2006,08,20,11,00,18.90
2006,08,20,11,01,18.90
2006,08,20,11,02,19.10
2006,08,20,11,03,19.20
2006,08,20,11,04,19.20
2006,08,20,11,05,19.30
2006,08,20,11,06,19.30
2006,08,20,11,07,19.40
2006,08,20,11,08,19.50
2006,08,20,11,09,19.60
2006,08,20,11,10,19.70
2006,08,20,11,11,19.70
2006,08,20,11,12,19.90
2006,08,20,11,13,19.90
2006,08,20,11,14,19.80
2006,08,20,11,15,19.80
2006,08,20,11,16,19.70
2006,08,20,11,17,19.70
2006,08,20,11,18,19.70
2006,08,20,11,19,19.70
2006,08,20,11,20,19.70
2006,08,20,11,21,19.70
2006,08,20,11,22,19.70
2006,08,20,11,23,19.70
2006,08,20,11,24,19.60
2006,08,20,11,25,19.60
2006,08,20,11,26,19.50
2006,08,20,11,27,19.60
2006,08,20,11,28,19.60
2006,08,20,11,29,19.70
2006,08,20,11,30,19.60
2006,08,20,11,31,19.60
2006,08,20,11,32,19.60
2006,08,20,11,33,19.60
2006,08,20,11,34,19.60
2006,08,20,11,35,19.70
2006,08,20,11,36,19.70
2006,08,20,11,37,19.70
2006,08,20,11,38,19.70
2006,08,20,11,39,19.80
2006,08,20,11,40,19.80
2006,08,20,11,41,19.80
2006,08,20,11,42,19.90
2006,08,20,11,43,19.90
2006,08,20,11,44,20.00
2006,08,20,11,45,20.00
2006,08,20,11,46,20.00
2006,08,20,11,47,20.00
2006,08,20,11,48,20.00
2006,08,20,11,49,20.00
2006,08,20,11,50,19.90
2006,08,20,11,51,19.90
2006,08,20,11,52,19.90
2006,08,20,11,53,19.90
2006,08,20,11,54,20.00
2006,08,20,11,55,20.10
2006,08,20,11,56,20.10
2006,08,20,11,57,20.00
2006,08,20,11,58,19.90
2006,08,20,11,59,19.80
2006,08,20,12,00,19.70
2006,08,20,12,01,19.70
2006,08,20,12,02,19.80
2006,08,20,12,03,19.90
2006,08,20,12,04,19.90
2006,08,20,12,05,20.00
2006,08,20,12,06,20.00
2006,08,20,12,07,20.10
2006,08,20,12,08,20.20
2006,08,20,12,09,20.20
2006,08,20,12,10,20.10
2006,08,20,12,11,20.10
2006,08,20,12,12,20.10
2006,08,20,12,13,20.00
2006,08,20,12,14,20.00
2006,08,20,12,15,20.10
2006,08,20,12,16,20.10
2006,08,20,12,17,20.10
2006,08,20,12,18,20.10
2006,08,20,12,19,20.10
2006,08,20,12,20,20.20
2006,08,20,12,21,20.20
2006,08,20,12,22,20.20
2006,08,20,12,23,20.10
2006,08,20,12,24,20.10
2006,08,20,12,25,20.20
2006,08,20,12,26,20.30
2006,08,20,12,27,20.30
2006,08,20,12,28,20.40
2006,08,20,12,29,20.30
2006,08,20,12,30,20.30
2006,08,20,12,31,20.30
2006,08,20,12,32,20.40
2006,08,20,12,33,20.50
2006,08,20,12,34,20.60
2006,08,20,12,35,20.70
2006,08,20,12,36,20.70
2006,08,20,12,37,20.80
2006,08,20,12,38,20.90
2006,08,20,12,39,21.00
2006,08,20,12,40,21.10
2006,08,20,12,41,21.20
2006,08,20,12,42,21.20
2006,08,20,12,43,21.30
2006,08,20,12,44,21.40
2006,08,20,12,45,21.50
2006,08,20,12,46,21.60
2006,08,20,12,47,21.60
2006,08,20,12,48,21.60
2006,08,20,12,49,21.70
2006,08,20,12,50,21.70
2006,08,20,12,51,21.70
2006,08,20,12,52,21.70
2006,08,20,12,53,21.70
2006,08,20,12,54,21.60
2006,08,20,12,55,21.60
2006,08,20,12,56,21.50
2006,08,20,12,57,21.50
2006,08,20,12,58,21.50
2006,08,20,12,59,21.50
2006,08,20,13,00,21.50
2006,08,20,13,01,21.50
2006,08,20,13,02,21.50
2006,08,20,13,03,21.50
2006,08,20,13,04,21.60
2006,08,20,13,05,21.70
2006,08,20,13,06,21.80
2006,08,20,13,07,22.00
2006,08,20,13,08,22.10
2006,08,20,13,09,22.20
2006,08,20,13,10,22.30
2006,08,20,13,11,22.30
2006,08,20,13,12,22.40
2006,08,20,13,13,22.40
2006,08,20,13,14,22.40
2006,08,20,13,15,22.40
2006,08,20,13,16,22.40
2006,08,20,13,17,22.40
2006,08,20,13,18,22.50
2006,08,20,13,19,22.40
2006,08,20,13,20,22.40
2006,08,20,13,21,22.30
2006,08,20,13,22,22.30
2006,08,20,13,23,22.30
2006,08,20,13,24,22.30
2006,08,20,13,25,22.30
2006,08,20,13,26,22.40
2006,08,20,13,27,22.40
2006,08,20,13,28,22.30
2006,08,20,13,29,22.40
2006,08,20,13,30,22.30
2006,08,20,13,31,22.30
2006,08,20,13,32,22.40
2006,08,20,13,33,22.60
2006,08,20,13,34,22.80
2006,08,20,13,35,22.80
2006,08,20,13,36,22.80
2006,08,20,13,37,22.80
2006,08,20,13,38,22.80
2006,08,20,13,39,22.90
2006,08,20,13,40,23.00
2006,08,20,13,41,23.20
2006,08,20,13,42,23.30
2006,08,20,13,43,23.30
2006,08,20,13,44,23.40
2006,08,20,13,45,23.30
2006,08,20,13,46,23.30
2006,08,20,13,47,23.20
2006,08,20,13,48,23.20
2006,08,20,13,49,23.20
2006,08,20,13,50,23.20
2006,08,20,13,51,23.20
2006,08,20,13,52,23.20
2006,08,20,13,53,23.30
2006,08,20,13,54,23.30
2006,08,20,13,55,23.40
2006,08,20,13,56,23.40
2006,08,20,13,57,23.50
2006,08,20,13,58,23.60
2006,08,20,13,59,23.60
2006,08,20,14,00,23.60
2006,08,20,14,01,23.60
2006,08,20,14,02,23.60
2006,08,20,14,03,23.60
2006,08,20,14,04,23.50
2006,08,20,14,05,23.40
2006,08,20,14,06,23.50
2006,08,20,14,07,23.50
2006,08,20,14,08,23.60
2006,08,20,14,09,23.70
2006,08,20,14,10,23.70
2006,08,20,14,11,23.80
2006,08,20,14,12,23.80
2006,08,20,14,13,23.90
2006,08,20,14,14,23.90
2006,08,20,14,15,24.00
2006,08,20,14,16,24.00
2006,08,20,14,17,23.90
2006,08,20,14,18,23.90
2006,08,20,14,19,23.90
2006,08,20,14,20,23.90
2006,08,20,14,21,24.00
2006,08,20,14,22,24.00
2006,08,20,14,23,24.10
2006,08,20,14,24,24.10
2006,08,20,14,25,24.20
2006,08,20,14,26,24.30
2006,08,20,14,27,24.30
2006,08,20,14,28,24.30
2006,08,20,14,29,24.40
2006,08,20,14,30,24.50
2006,08,20,14,31,24.50
2006,08,20,14,32,24.40
2006,08,20,14,33,24.30
2006,08,20,14,34,24.30
2006,08,20,14,35,24.30
2006,08,20,14,36,24.40
2006,08,20,14,37,24.40
2006,08,20,14,38,24.30
2006,08,20,14,39,24.30
2006,08,20,14,40,24.20
2006,08,20,14,41,24.20
2006,08,20,14,42,24.30
2006,08,20,14,43,24.30
2006,08,20,14,44,24.40
2006,08,20,14,45,24.40
2006,08,20,14,46,24.40
2006,08,20,14,47,24.30
2006,08,20,14,48,24.30
2006,08,20,14,49,24.40
2006,08,20,14,50,24.40
2006,08,20,14,51,24.40
2006,08,20,14,52,24.50
2006,08,20,14,53,24.60
2006,08,20,14,54,24.70
2006,08,20,14,55,24.80
2006,08,20,14,56,24.80
2006,08,20,14,57,24.80
2006,08,20,14,58,24.90
2006,08,20,14,59,24.90
2006,08,20,15,00,24.90
2006,08,20,15,01,24.90
2006,08,20,15,02,24.90
2006,08,20,15,03,24.90
2006,08,20,15,04,25.00
2006,08,20,15,05,25.10
2006,08,20,15,06,25.30
2006,08,20,15,07,25.40
2006,08,20,15,08,25.50
2006,08,20,15,09,25.60
2006,08,20,15,10,25.80
2006,08,20,15,11,25.80
2006,08,20,15,12,25.80
2006,08,20,15,13,25.70
2006,08,20,15,14,25.50
2006,08,20,15,15,25.40
2006,08,20,15,16,25.30
2006,08,20,15,17,25.30
2006,08,20,15,18,25.20
2006,08,20,15,19,25.10
2006,08,20,15,20,25.10
2006,08,20,15,21,25.10
2006,08,20,15,22,25.10
2006,08,20,15,23,25.20
2006,08,20,15,24,25.20
2006,08,20,15,25,25.10
2006,08,20,15,26,25.10
2006,08,20,15,27,25.20
2006,08,20,15,28,25.20
2006,08,20,15,29,25.20
2006,08,20,15,30,25.10
2006,08,20,15,31,25.10
2006,08,20,15,32,25.00
2006,08,20,15,33,25.00
2006,08,20,15,34,24.90
2006,08,20,15,35,24.90
2006,08,20,15,36,24.90
2006,08,20,15,37,24.80
2006,08,20,15,38,24.80
2006,08,20,15,39,24.70
2006,08,20,15,40,24.70
2006,08,20,15,41,24.70
2006,08,20,15,42,24.70
2006,08,20,15,43,24.80
2006,08,20,15,44,24.80
2006,08,20,15,45,24.90
2006,08,20,15,46,24.90
2006,08,20,15,47,25.00
2006,08,20,15,48,25.10
2006,08,20,15,49,25.10
2006,08,20,15,50,25.00
2006,08,20,15,51,25.00
2006,08,20,15,52,25.10
2006,08,20,15,53,25.10
2006,08,20,15,54,25.10
2006,08,20,15,55,25.20
2006,08,20,15,56,25.30
2006,08,20,15,57,25.30
2006,08,20,15,58,25.40
2006,08,20,15,59,25.50
2006,08,20,16,00,25.60
2006,08,20,16,01,25.60
2006,08,20,16,02,25.60
2006,08,20,16,03,25.60
2006,08,20,16,04,25.60
2006,08,20,16,05,25.60
2006,08,20,16,06,25.60
2006,08,20,16,07,25.70
2006,08,20,16,08,25.80
2006,08,20,16,09,25.90
2006,08,20,16,10,25.90
2006,08,20,16,11,26.00
2006,08,20,16,12,25.90
2006,08,20,16,13,25.90
2006,08,20,16,14,25.90
2006,08,20,16,15,25.90
2006,08,20,16,16,25.90
2006,08,20,16,17,25.90
2006,08,20,16,18,25.90
2006,08,20,16,19,25.90
2006,08,20,16,20,25.90
2006,08,20,16,21,25.90
2006,08,20,16,22,25.90
2006,08,20,16,23,25.90
2006,08,20,16,24,25.90
2006,08,20,16,25,25.90
2006,08,20,16,26,25.90
2006,08,20,16,27,25.90
2006,08,20,16,28,25.90
2006,08,20,16,29,26.00
2006,08,20,16,30,26.10
2006,08,20,16,31,26.20
2006,08,20,16,32,26.30
2006,08,20,16,33,26.50
2006,08,20,16,34,26.50
2006,08,20,16,35,26.60
2006,08,20,16,36,26.70
2006,08,20,16,37,26.80
2006,08,20,16,38,26.80
2006,08,20,16,39,26.80
2006,08,20,16,40,26.80
2006,08,20,16,41,26.80
2006,08,20,16,42,26.80
2006,08,20,16,43,26.70
2006,08,20,16,44,26.70
2006,08,20,16,45,26.50
2006,08,20,16,46,26.30
2006,08,20,16,47,26.00
2006,08,20,16,48,25.90
2006,08,20,16,49,25.90
2006,08,20,16,50,26.00
2006,08,20,16,51,26.10
2006,08,20,16,52,26.20
2006,08,20,16,53,26.30
2006,08,20,16,54,26.40
2006,08,20,16,55,26.60
2006,08,20,16,56,26.60
2006,08,20,16,57,26.60
2006,08,20,16,58,26.60
2006,08,20,16,59,26.50
2006,08,20,17,00,26.30
2006,08,20,17,01,26.00
2006,08,20,17,02,25.90
2006,08,20,17,03,25.80
2006,08,20,17,04,25.90
2006,08,20,17,05,25.90
2006,08,20,17,06,25.80
2006,08,20,17,07,25.80
2006,08,20,17,08,25.90
2006,08,20,17,09,25.90
2006,08,20,17,10,25.90
2006,08,20,17,11,26.00
2006,08,20,17,12,26.00
2006,08,20,17,13,25.90
2006,08,20,17,14,25.90
2006,08,20,17,15,25.90
2006,08,20,17,16,25.60
2006,08,20,17,17,25.40
2006,08,20,17,18,25.30
2006,08,20,17,19,25.20